Precipitable_Water
0.75 0.76 0.75 0.75 0.74 0.74 0.73 0.70 0.67 0.65 0.63 0.62 0.60 0.58 0.58 0.57 0.55 0.53 0.50 0.50 0.49 0.49 0.48 0.46 0.45 0.45 0.45 0.45 0.46 0.45 0.45 0.36 0.32 0.29 0.28 0.30 0.31 0.35 0.32 0.27 0.26 0.28 0.34 0.32 0.29 0.27 0.24 0.24 0.23 0.23 0.21 0.20 0.19 0.16 0.19 0.18 0.19 0.18 0.12 0.11 0.09 0.10 0.10 0.13 0.12 0.13 0.16 0.13 0.18 0.18 0.18 0.16 0.15 0.17 0.19 0.19 0.19 0.19 0.22 0.28 0.51 0.70 0.78 0.89 0.94 1.00 1.07 1.09
0.72 0.73 0.74 0.75 0.75 0.75 0.74 0.73 0.71 0.69 0.66 0.62 0.61 0.59 0.58 0.57 0.55 0.54 0.51 0.49 0.50 0.49 0.48 0.48 0.46 0.46 0.46 0.49 0.51 0.52 0.48 0.41 0.33 0.31 0.28 0.33 0.37 0.37 0.34 0.25 0.25 0.31 0.33 0.28 0.26 0.26 0.23 0.23 0.23 0.21 0.18 0.15 0.20 0.15 0.18 0.16 0.17 0.12 0.11 0.10 0.09 0.11 0.12 0.15 0.14 0.16 0.15 0.16 0.18 0.18 0.18 0.15 0.15 0.16 0.17 0.17 0.17 0.18 0.19 0.24 0.38 0.64 0.76 0.89 0.97 1.04 1.06 1.07
0.71 0.70 0.70 0.71 0.73 0.74 0.75 0.74 0.72 0.70 0.69 0.66 0.63 0.61 0.59 0.58 0.56 0.54 0.51 0.49 0.49 0.49 0.49 0.47 0.47 0.47 0.49 0.51 0.54 0.54 0.47 0.35 0.32 0.25 0.28 0.36 0.38 0.36 0.32 0.23 0.26 0.33 0.29 0.26 0.27 0.26 0.24 0.22 0.23 0.21 0.19 0.16 0.16 0.14 0.16 0.15 0.16 0.15 0.12 0.10 0.11 0.14 0.14 0.15 0.16 0.16 0.17 0.17 0.16 0.16 0.16 0.14 0.15 0.14 0.16 0.16 0.16 0.18 0.17 0.20 0.31 0.52 0.61 0.78 0.94 1.00 1.00 1.03
0.71 0.70 0.69 0.68 0.68 0.70 0.73 0.73 0.71 0.69 0.67 0.67 0.66 0.62 0.59 0.58 0.56 0.54 0.51 0.50 0.49 0.50 0.49 0.48 0.47 0.49 0.53 0.53 0.56 0.54 0.47 0.34 0.24 0.28 0.31 0.33 0.34 0.31 0.24 0.22 0.29 0.32 0.30 0.29 0.28 0.26 0.27 0.26 0.24 0.22 0.17 0.16 0.16 0.17 0.15 0.16 0.15 0.16 0.14 0.12 0.13 0.15 0.14 0.15 0.16 0.16 0.15 0.16 0.15 0.15 0.15 0.14 0.14 0.14 0.15 0.14 0.15 0.16 0.18 0.20 0.26 0.48 0.62 0.76 0.88 0.93 0.95 0.94
0.70 0.71 0.71 0.70 0.69 0.67 0.67 0.70 0.70 0.67 0.65 0.65 0.65 0.62 0.60 0.58 0.56 0.54 0.51 0.49 0.49 0.49 0.49 0.49 0.49 0.51 0.54 0.56 0.55 0.58 0.38 0.23 0.25 0.38 0.30 0.30 0.30 0.25 0.25 0.27 0.29 0.30 0.30 0.29 0.28 0.27 0.25 0.22 0.22 0.20 0.16 0.13 0.16 0.16 0.16 0.17 0.16 0.15 0.14 0.15 0.15 0.15 0.13 0.15 0.15 0.16 0.14 0.14 0.13 0.13 0.11 0.12 0.14 0.14 0.14 0.14 0.13 0.15 0.18 0.20 0.23 0.50 0.56 0.68 0.75 0.87 0.92 0.87
0.71 0.71 0.71 0.72 0.71 0.70 0.67 0.66 0.66 0.65 0.63 0.63 0.64 0.62 0.59 0.57 0.55 0.54 0.51 0.49 0.49 0.50 0.49 0.49 0.50 0.52 0.54 0.56 0.58 0.52 0.38 0.19 0.34 0.35 0.32 0.30 0.30 0.31 0.31 0.32 0.33 0.32 0.30 0.26 0.24 0.23 0.21 0.20 0.19 0.15 0.14 0.14 0.13 0.12 0.14 0.14 0.16 0.11 0.13 0.13 0.14 0.15 0.13 0.15 0.14 0.14 0.14 0.12 0.12 0.12 0.12 0.13 0.12 0.11 0.12 0.13 0.13 0.14 0.18 0.21 0.22 0.42 0.50 0.67 0.75 0.84 0.91 0.94
0.72 0.71 0.71 0.71 0.71 0.71 0.70 0.67 0.64 0.62 0.61 0.61 0.61 0.60 0.58 0.56 0.55 0.54 0.52 0.50 0.49 0.50 0.49 0.49 0.52 0.55 0.53 0.60 0.59 0.47 0.37 0.34 0.37 0.33 0.33 0.33 0.32 0.32 0.36 0.37 0.36 0.32 0.29 0.24 0.23 0.20 0.19 0.17 0.16 0.14 0.13 0.13 0.14 0.13 0.13 0.13 0.14 0.12 0.11 0.12 0.12 0.13 0.13 0.13 0.14 0.14 0.14 0.13 0.12 0.13 0.13 0.12 0.12 0.11 0.13 0.12 0.13 0.13 0.15 0.19 0.23 0.45 0.55 0.68 0.68 0.82 0.86 0.91
0.72 0.71 0.70 0.70 0.70 0.70 0.70 0.69 0.66 0.61 0.59 0.58 0.58 0.57 0.56 0.56 0.55 0.54 0.52 0.51 0.50 0.50 0.50 0.50 0.55 0.56 0.59 0.55 0.43 0.36 0.33 0.30 0.34 0.35 0.31 0.35 0.35 0.36 0.36 0.35 0.32 0.30 0.26 0.23 0.21 0.18 0.18 0.15 0.15 0.15 0.13 0.12 0.13 0.13 0.14 0.12 0.12 0.11 0.11 0.12 0.12 0.12 0.12 0.12 0.12 0.12 0.13 0.13 0.14 0.14 0.13 0.12 0.12 0.12 0.12 0.12 0.12 0.13 0.13 0.17 0.24 0.52 0.53 0.69 0.75 0.84 0.88 0.91
0.70 0.70 0.70 0.71 0.71 0.71 0.70 0.69 0.68 0.63 0.57 0.56 0.56 0.55 0.55 0.54 0.54 0.53 0.52 0.52 0.52 0.51 0.51 0.53 0.56 0.58 0.64 0.52 0.38 0.31 0.28 0.37 0.42 0.38 0.35 0.31 0.33 0.34 0.32 0.28 0.31 0.27 0.24 0.24 0.23 0.20 0.18 0.16 0.16 0.16 0.13 0.13 0.14 0.13 0.14 0.11 0.10 0.12 0.12 0.12 0.12 0.12 0.12 0.12 0.12 0.12 0.12 0.12 0.12 0.12 0.12 0.12 0.13 0.13 0.11 0.12 0.13 0.13 0.16 0.18 0.31 0.51 0.47 0.62 0.72 0.89 0.91 0.90
0.74 0.72 0.71 0.71 0.71 0.71 0.71 0.69 0.68 0.64 0.58 0.55 0.54 0.55 0.54 0.53 0.53 0.53 0.53 0.53 0.52 0.53 0.53 0.54 0.57 0.59 0.55 0.42 0.39 0.28 0.34 0.45 0.42 0.41 0.39 0.35 0.35 0.35 0.34 0.31 0.30 0.26 0.23 0.23 0.22 0.20 0.17 0.18 0.17 0.18 0.17 0.15 0.15 0.13 0.14 0.12 0.11 0.13 0.13 0.13 0.12 0.12 0.12 0.13 0.12 0.13 0.14 0.13 0.13 0.11 0.11 0.12 0.13 0.13 0.11 0.13 0.14 0.16 0.15 0.21 0.40 0.48 0.44 0.52 0.64 0.76 0.86 0.88
0.74 0.72 0.70 0.70 0.70 0.71 0.71 0.70 0.69 0.65 0.60 0.55 0.53 0.53 0.53 0.53 0.52 0.53 0.54 0.53 0.52 0.53 0.53 0.54 0.57 0.57 0.45 0.42 0.34 0.31 0.46 0.42 0.41 0.42 0.42 0.40 0.38 0.35 0.33 0.33 0.33 0.28 0.24 0.22 0.21 0.21 0.20 0.19 0.19 0.18 0.16 0.14 0.15 0.13 0.13 0.13 0.14 0.14 0.13 0.13 0.12 0.13 0.13 0.14 0.14 0.14 0.14 0.13 0.13 0.12 0.12 0.13 0.13 0.13 0.12 0.14 0.16 0.17 0.16 0.26 0.34 0.31 0.34 0.43 0.53 0.67 0.75 0.76
0.73 0.74 0.73 0.72 0.70 0.71 0.71 0.71 0.70 0.67 0.62 0.58 0.54 0.52 0.52 0.52 0.53 0.53 0.53 0.54 0.52 0.54 0.54 0.55 0.58 0.55 0.51 0.41 0.37 0.39 0.50 0.49 0.49 0.44 0.43 0.40 0.37 0.36 0.37 0.35 0.33 0.30 0.26 0.20 0.20 0.22 0.21 0.20 0.19 0.17 0.14 0.17 0.13 0.14 0.13 0.15 0.14 0.14 0.13 0.11 0.13 0.13 0.14 0.14 0.15 0.16 0.15 0.13 0.14 0.14 0.12 0.12 0.14 0.15 0.16 0.17 0.18 0.19 0.20 0.26 0.30 0.31 0.39 0.45 0.49 0.58 0.62 0.64
0.73 0.73 0.73 0.72 0.71 0.70 0.71 0.71 0.70 0.69 0.64 0.61 0.57 0.54 0.51 0.51 0.52 0.53 0.54 0.53 0.54 0.54 0.55 0.56 0.57 0.57 0.44 0.31 0.39 0.51 0.52 0.51 0.48 0.45 0.44 0.43 0.40 0.39 0.38 0.37 0.35 0.33 0.30 0.25 0.22 0.22 0.22 0.21 0.20 0.16 0.17 0.16 0.14 0.12 0.15 0.16 0.15 0.14 0.14 0.14 0.14 0.13 0.13 0.16 0.18 0.17 0.15 0.13 0.14 0.15 0.11 0.12 0.14 0.17 0.18 0.20 0.22 0.24 0.25 0.26 0.31 0.36 0.39 0.44 0.49 0.56 0.61 0.66
0.75 0.72 0.72 0.72 0.72 0.71 0.71 0.71 0.71 0.70 0.66 0.63 0.61 0.58 0.53 0.52 0.52 0.53 0.53 0.52 0.54 0.55 0.56 0.59 0.58 0.53 0.42 0.34 0.47 0.54 0.57 0.58 0.54 0.45 0.42 0.44 0.39 0.36 0.36 0.35 0.36 0.34 0.33 0.30 0.28 0.27 0.24 0.23 0.21 0.19 0.19 0.16 0.13 0.17 0.15 0.15 0.15 0.13 0.15 0.15 0.14 0.12 0.13 0.18 0.18 0.18 0.14 0.15 0.15 0.15 0.12 0.12 0.15 0.18 0.19 0.21 0.24 0.27 0.27 0.30 0.34 0.39 0.45 0.45 0.49 0.55 0.58 0.67
0.77 0.75 0.73 0.72 0.73 0.73 0.72 0.73 0.72 0.71 0.70 0.68 0.66 0.62 0.57 0.53 0.54 0.54 0.56 0.54 0.55 0.57 0.59 0.62 0.59 0.48 0.39 0.43 0.55 0.60 0.62 0.60 0.49 0.46 0.46 0.41 0.37 0.34 0.33 0.34 0.32 0.32 0.33 0.32 0.30 0.28 0.27 0.25 0.23 0.18 0.16 0.18 0.17 0.14 0.14 0.14 0.15 0.16 0.13 0.14 0.16 0.14 0.15 0.17 0.19 0.18 0.15 0.17 0.16 0.14 0.13 0.13 0.15 0.18 0.20 0.23 0.25 0.28 0.28 0.34 0.39 0.41 0.43 0.47 0.49 0.50 0.58 0.65
0.78 0.78 0.76 0.74 0.74 0.75 0.76 0.75 0.74 0.74 0.73 0.72 0.70 0.69 0.66 0.63 0.62 0.59 0.61 0.60 0.62 0.64 0.64 0.52 0.53 0.47 0.41 0.37 0.48 0.63 0.56 0.47 0.44 0.48 0.49 0.45 0.39 0.34 0.35 0.33 0.33 0.32 0.32 0.32 0.33 0.32 0.30 0.27 0.21 0.19 0.17 0.17 0.14 0.15 0.15 0.14 0.15 0.18 0.16 0.15 0.15 0.16 0.16 0.16 0.19 0.20 0.19 0.18 0.16 0.15 0.13 0.15 0.15 0.19 0.21 0.25 0.26 0.28 0.27 0.33 0.37 0.42 0.46 0.47 0.50 0.53 0.58 0.63
0.75 0.77 0.78 0.77 0.76 0.76 0.77 0.78 0.79 0.78 0.78 0.77 0.73 0.73 0.70 0.72 0.73 0.70 0.67 0.67 0.67 0.68 0.59 0.47 0.53 0.51 0.33 0.50 0.56 0.46 0.46 0.49 0.53 0.49 0.47 0.47 0.42 0.39 0.36 0.33 0.31 0.30 0.31 0.33 0.33 0.30 0.28 0.24 0.23 0.19 0.20 0.16 0.16 0.17 0.14 0.15 0.15 0.16 0.19 0.16 0.17 0.15 0.16 0.15 0.19 0.20 0.21 0.19 0.16 0.16 0.14 0.15 0.17 0.20 0.22 0.24 0.27 0.27 0.26 0.29 0.34 0.38 0.43 0.49 0.53 0.54 0.57 0.59
0.71 0.72 0.74 0.75 0.75 0.75 0.75 0.76 0.78 0.82 0.84 0.81 0.79 0.74 0.67 0.70 0.74 0.73 0.70 0.73 0.76 0.70 0.64 0.63 0.55 0.40 0.36 0.46 0.37 0.42 0.50 0.49 0.48 0.50 0.49 0.47 0.44 0.39 0.36 0.32 0.33 0.31 0.31 0.29 0.30 0.26 0.26 0.22 0.22 0.18 0.18 0.17 0.17 0.17 0.14 0.14 0.15 0.16 0.17 0.16 0.16 0.16 0.17 0.16 0.15 0.21 0.20 0.20 0.17 0.17 0.16 0.17 0.18 0.19 0.22 0.27 0.31 0.29 0.28 0.30 0.34 0.36 0.39 0.43 0.46 0.48 0.50 0.52
0.69 0.67 0.66 0.69 0.72 0.73 0.73 0.74 0.76 0.82 0.86 0.86 0.85 0.85 0.81 0.74 0.67 0.63 0.58 0.61 0.53 0.47 0.41 0.44 0.41 0.30 0.28 0.37 0.45 0.47 0.48 0.50 0.50 0.48 0.46 0.44 0.44 0.41 0.37 0.36 0.34 0.30 0.26 0.26 0.26 0.28 0.26 0.24 0.23 0.20 0.17 0.17 0.17 0.19 0.19 0.20 0.20 0.19 0.19 0.18 0.16 0.15 0.16 0.16 0.20 0.23 0.22 0.19 0.18 0.18 0.17 0.18 0.18 0.17 0.21 0.25 0.30 0.30 0.30 0.35 0.37 0.39 0.41 0.41 0.41 0.41 0.42 0.46
0.70 0.70 0.68 0.66 0.69 0.72 0.73 0.73 0.75 0.81 0.85 0.83 0.83 0.76 0.68 0.53 0.47 0.41 0.52 0.52 0.45 0.45 0.46 0.50 0.51 0.47 0.46 0.44 0.43 0.54 0.59 0.56 0.45 0.47 0.47 0.46 0.41 0.37 0.34 0.34 0.32 0.30 0.27 0.23 0.27 0.27 0.28 0.21 0.19 0.19 0.21 0.22 0.23 0.24 0.24 0.24 0.23 0.22 0.22 0.20 0.18 0.17 0.17 0.21 0.22 0.24 0.24 0.20 0.20 0.21 0.21 0.21 0.22 0.22 0.23 0.26 0.29 0.30 0.31 0.33 0.37 0.39 0.39 0.40 0.40 0.40 0.41 0.43
0.72 0.72 0.71 0.67 0.66 0.70 0.73 0.74 0.77 0.82 0.85 0.82 0.78 0.68 0.52 0.49 0.35 0.30 0.38 0.38 0.45 0.51 0.50 0.52 0.54 0.52 0.47 0.49 0.51 0.51 0.46 0.47 0.47 0.44 0.44 0.50 0.42 0.35 0.31 0.30 0.27 0.23 0.25 0.28 0.26 0.31 0.27 0.20 0.20 0.23 0.25 0.25 0.25 0.26 0.26 0.25 0.25 0.23 0.21 0.20 0.19 0.18 0.16 0.21 0.22 0.25 0.26 0.21 0.21 0.23 0.22 0.22 0.24 0.25 0.26 0.30 0.30 0.28 0.31 0.34 0.38 0.39 0.42 0.43 0.42 0.41 0.43 0.45
0.73 0.72 0.72 0.69 0.66 0.64 0.69 0.73 0.79 0.85 0.87 0.81 0.73 0.63 0.66 0.66 0.64 0.64 0.51 0.30 0.38 0.48 0.51 0.51 0.55 0.50 0.57 0.55 0.57 0.56 0.51 0.40 0.40 0.42 0.45 0.44 0.40 0.31 0.33 0.29 0.25 0.22 0.27 0.28 0.27 0.25 0.22 0.20 0.23 0.25 0.27 0.27 0.27 0.27 0.27 0.26 0.25 0.24 0.22 0.21 0.18 0.19 0.20 0.23 0.24 0.28 0.27 0.24 0.23 0.24 0.23 0.24 0.27 0.27 0.29 0.31 0.32 0.33 0.35 0.36 0.37 0.40 0.42 0.44 0.45 0.45 0.45 0.46
0.69 0.70 0.71 0.71 0.68 0.64 0.63 0.68 0.80 0.85 0.81 0.75 0.66 0.67 0.69 0.81 0.85 0.76 0.60 0.45 0.36 0.48 0.47 0.48 0.45 0.45 0.47 0.55 0.56 0.55 0.42 0.39 0.36 0.39 0.40 0.41 0.39 0.35 0.33 0.29 0.28 0.27 0.27 0.27 0.23 0.23 0.20 0.22 0.25 0.27 0.28 0.27 0.27 0.28 0.27 0.27 0.26 0.24 0.23 0.21 0.19 0.22 0.18 0.17 0.24 0.28 0.29 0.27 0.24 0.26 0.24 0.26 0.29 0.31 0.32 0.35 0.34 0.37 0.41 0.42 0.46 0.47 0.44 0.43 0.45 0.46 0.45 0.45
0.65 0.64 0.66 0.69 0.69 0.63 0.60 0.63 0.79 0.80 0.77 0.75 0.72 0.73 0.87 0.91 0.84 0.73 0.54 0.35 0.32 0.41 0.44 0.49 0.48 0.47 0.46 0.43 0.51 0.49 0.43 0.42 0.42 0.39 0.46 0.41 0.37 0.40 0.33 0.31 0.29 0.28 0.25 0.26 0.25 0.23 0.21 0.25 0.28 0.29 0.29 0.28 0.26 0.27 0.26 0.25 0.23 0.25 0.25 0.23 0.22 0.21 0.22 0.20 0.22 0.26 0.28 0.29 0.28 0.25 0.23 0.23 0.27 0.26 0.29 0.35 0.39 0.39 0.41 0.43 0.46 0.48 0.50 0.50 0.51 0.51 0.51 0.48
0.68 0.64 0.61 0.61 0.62 0.63 0.54 0.63 0.68 0.70 0.75 0.72 0.74 0.85 0.91 0.89 0.80 0.75 0.50 0.39 0.42 0.44 0.55 0.49 0.51 0.50 0.51 0.58 0.55 0.44 0.45 0.43 0.42 0.43 0.44 0.42 0.39 0.37 0.35 0.38 0.33 0.28 0.27 0.27 0.25 0.23 0.23 0.27 0.30 0.29 0.29 0.28 0.26 0.25 0.26 0.25 0.22 0.24 0.27 0.26 0.25 0.25 0.23 0.24 0.25 0.23 0.22 0.21 0.26 0.23 0.16 0.16 0.24 0.27 0.28 0.32 0.35 0.36 0.41 0.42 0.43 0.47 0.49 0.51 0.48 0.48 0.50 0.50
0.74 0.69 0.64 0.59 0.56 0.52 0.48 0.47 0.56 0.61 0.66 0.65 0.77 0.88 0.90 0.87 0.80 0.74 0.52 0.32 0.29 0.41 0.48 0.36 0.50 0.41 0.55 0.44 0.50 0.47 0.45 0.38 0.45 0.44 0.46 0.46 0.48 0.41 0.40 0.34 0.33 0.25 0.27 0.26 0.24 0.25 0.25 0.30 0.30 0.28 0.29 0.28 0.27 0.25 0.27 0.26 0.23 0.22 0.24 0.29 0.28 0.26 0.25 0.24 0.24 0.23 0.19 0.16 0.23 0.27 0.16 0.13 0.21 0.23 0.28 0.32 0.34 0.35 0.39 0.40 0.42 0.45 0.48 0.49 0.48 0.49 0.49 0.49
0.80 0.75 0.69 0.64 0.59 0.54 0.34 0.27 0.44 0.53 0.50 0.66 0.83 0.89 0.87 0.81 0.82 0.71 0.41 0.31 0.27 0.46 0.39 0.46 0.43 0.45 0.52 0.48 0.48 0.50 0.32 0.36 0.47 0.48 0.46 0.49 0.42 0.47 0.35 0.33 0.32 0.30 0.30 0.30 0.24 0.21 0.25 0.28 0.29 0.29 0.27 0.26 0.25 0.24 0.27 0.27 0.24 0.22 0.30 0.30 0.29 0.28 0.26 0.25 0.25 0.24 0.23 0.27 0.27 0.25 0.23 0.16 0.16 0.22 0.31 0.34 0.33 0.35 0.36 0.38 0.40 0.43 0.46 0.48 0.50 0.51 0.51 0.52
0.82 0.81 0.77 0.70 0.64 0.57 0.41 0.38 0.39 0.36 0.48 0.67 0.84 0.85 0.83 0.79 0.77 0.71 0.39 0.19 0.21 0.54 0.40 0.45 0.46 0.55 0.49 0.50 0.50 0.43 0.41 0.47 0.40 0.44 0.48 0.51 0.47 0.43 0.38 0.34 0.31 0.30 0.31 0.30 0.20 0.27 0.28 0.27 0.29 0.29 0.28 0.26 0.25 0.28 0.30 0.31 0.27 0.27 0.31 0.32 0.30 0.29 0.28 0.28 0.27 0.25 0.26 0.24 0.19 0.23 0.25 0.18 0.17 0.22 0.32 0.34 0.31 0.33 0.35 0.37 0.40 0.43 0.46 0.49 0.51 0.53 0.55 0.55
0.77 0.77 0.76 0.76 0.73 0.65 0.57 0.40 0.34 0.33 0.53 0.69 0.77 0.81 0.77 0.77 0.66 0.46 0.32 0.20 0.52 0.45 0.64 0.42 0.59 0.51 0.48 0.49 0.45 0.46 0.45 0.47 0.40 0.45 0.49 0.49 0.49 0.43 0.36 0.37 0.37 0.36 0.35 0.32 0.25 0.30 0.33 0.32 0.33 0.32 0.30 0.27 0.30 0.32 0.33 0.32 0.28 0.33 0.35 0.37 0.36 0.35 0.32 0.30 0.27 0.26 0.26 0.22 0.16 0.21 0.25 0.17 0.17 0.23 0.27 0.33 0.32 0.31 0.35 0.39 0.42 0.45 0.47 0.50 0.52 0.54 0.55 0.56
0.72 0.71 0.71 0.71 0.70 0.69 0.58 0.49 0.35 0.45 0.57 0.65 0.71 0.75 0.76 0.67 0.50 0.30 0.25 0.18 0.56 0.38 0.52 0.52 0.51 0.47 0.54 0.46 0.43 0.45 0.44 0.46 0.46 0.46 0.47 0.43 0.45 0.47 0.43 0.44 0.38 0.36 0.34 0.35 0.31 0.32 0.35 0.39 0.39 0.34 0.31 0.32 0.32 0.33 0.35 0.35 0.35 0.38 0.36 0.33 0.33 0.33 0.32 0.31 0.28 0.26 0.23 0.16 0.17 0.22 0.24 0.22 0.15 0.21 0.25 0.27 0.28 0.33 0.37 0.40 0.45 0.48 0.50 0.52 0.53 0.53 0.54 0.54
0.71 0.69 0.69 0.71 0.58 0.60 0.58 0.38 0.42 0.52 0.54 0.66 0.75 0.72 0.66 0.56 0.38 0.27 0.19 0.36 0.52 0.50 0.55 0.52 0.49 0.58 0.49 0.45 0.42 0.51 0.50 0.49 0.47 0.45 0.41 0.45 0.42 0.45 0.44 0.40 0.43 0.36 0.35 0.33 0.31 0.33 0.36 0.39 0.38 0.38 0.39 0.36 0.35 0.32 0.36 0.37 0.37 0.34 0.31 0.30 0.29 0.28 0.30 0.28 0.26 0.27 0.18 0.15 0.22 0.26 0.25 0.25 0.15 0.20 0.26 0.31 0.35 0.37 0.37 0.36 0.40 0.45 0.47 0.49 0.51 0.53 0.54 0.55
0.70 0.68 0.70 0.69 0.64 0.63 0.45 0.35 0.43 0.52 0.67 0.73 0.67 0.61 0.50 0.30 0.40 0.23 0.26 0.64 0.36 0.48 0.48 0.47 0.54 0.52 0.52 0.54 0.50 0.49 0.47 0.46 0.46 0.43 0.39 0.40 0.39 0.38 0.39 0.34 0.36 0.29 0.29 0.31 0.29 0.34 0.32 0.33 0.37 0.38 0.44 0.36 0.33 0.29 0.32 0.35 0.36 0.33 0.32 0.30 0.23 0.21 0.21 0.17 0.20 0.16 0.17 0.16 0.23 0.26 0.26 0.20 0.18 0.22 0.27 0.30 0.32 0.35 0.38 0.39 0.40 0.42 0.45 0.48 0.51 0.53 0.54 0.55
0.69 0.69 0.79 0.78 0.69 0.50 0.45 0.49 0.59 0.66 0.72 0.74 0.58 0.55 0.36 0.25 0.19 0.36 0.36 0.45 0.40 0.54 0.52 0.61 0.55 0.54 0.54 0.50 0.47 0.49 0.50 0.41 0.47 0.43 0.43 0.42 0.39 0.38 0.40 0.37 0.37 0.33 0.25 0.32 0.31 0.31 0.32 0.37 0.38 0.39 0.40 0.42 0.37 0.28 0.29 0.30 0.34 0.33 0.29 0.28 0.23 0.19 0.18 0.15 0.17 0.20 0.19 0.22 0.26 0.24 0.30 0.19 0.23 0.26 0.32 0.31 0.34 0.37 0.38 0.39 0.40 0.41 0.42 0.44 0.48 0.52 0.54 0.55
0.69 0.73 0.75 0.73 0.62 0.58 0.61 0.67 0.69 0.70 0.69 0.69 0.58 0.43 0.36 0.22 0.24 0.48 0.42 0.45 0.46 0.59 0.57 0.54 0.56 0.56 0.53 0.44 0.48 0.53 0.42 0.47 0.48 0.44 0.44 0.39 0.38 0.35 0.36 0.39 0.38 0.33 0.32 0.33 0.29 0.31 0.26 0.28 0.34 0.37 0.34 0.42 0.39 0.35 0.34 0.32 0.33 0.33 0.35 0.31 0.27 0.24 0.20 0.16 0.17 0.15 0.15 0.17 0.22 0.28 0.20 0.17 0.17 0.21 0.34 0.37 0.39 0.40 0.41 0.41 0.42 0.44 0.46 0.47 0.49 0.50 0.52 0.52
0.68 0.73 0.79 0.73 0.71 0.73 0.80 0.80 0.78 0.76 0.66 0.56 0.42 0.35 0.24 0.26 0.36 0.35 0.38 0.43 0.48 0.52 0.50 0.57 0.50 0.51 0.49 0.53 0.57 0.56 0.51 0.42 0.51 0.46 0.43 0.40 0.37 0.36 0.35 0.36 0.39 0.38 0.37 0.30 0.33 0.32 0.31 0.31 0.37 0.42 0.41 0.43 0.38 0.41 0.41 0.37 0.35 0.36 0.35 0.34 0.27 0.24 0.29 0.19 0.21 0.20 0.20 0.20 0.20 0.22 0.20 0.23 0.22 0.32 0.37 0.39 0.40 0.39 0.40 0.41 0.42 0.43 0.46 0.48 0.48 0.49 0.50 0.51
0.60 0.66 0.78 0.71 0.71 0.79 0.89 0.83 0.83 0.76 0.57 0.37 0.30 0.25 0.26 0.37 0.34 0.48 0.45 0.56 0.52 0.44 0.45 0.47 0.46 0.42 0.44 0.47 0.53 0.50 0.58 0.47 0.50 0.47 0.45 0.43 0.42 0.38 0.39 0.39 0.38 0.40 0.36 0.32 0.36 0.31 0.34 0.31 0.39 0.41 0.42 0.40 0.39 0.40 0.39 0.40 0.25 0.34 0.34 0.27 0.29 0.36 0.30 0.26 0.26 0.28 0.27 0.24 0.19 0.25 0.23 0.25 0.32 0.33 0.37 0.39 0.39 0.38 0.39 0.40 0.41 0.43 0.46 0.47 0.47 0.48 0.50 0.50
0.50 0.56 0.62 0.67 0.70 0.80 0.89 0.89 0.85 0.69 0.53 0.32 0.25 0.23 0.40 0.45 0.50 0.51 0.56 0.51 0.52 0.52 0.47 0.34 0.38 0.39 0.38 0.39 0.44 0.48 0.49 0.52 0.49 0.46 0.40 0.47 0.40 0.43 0.40 0.40 0.42 0.41 0.42 0.38 0.35 0.40 0.32 0.32 0.39 0.38 0.36 0.42 0.44 0.43 0.42 0.42 0.41 0.36 0.28 0.31 0.38 0.40 0.35 0.27 0.19 0.23 0.21 0.17 0.18 0.24 0.20 0.21 0.22 0.19 0.35 0.36 0.34 0.35 0.36 0.38 0.40 0.42 0.45 0.44 0.46 0.47 0.48 0.48
0.47 0.50 0.58 0.62 0.70 0.79 0.89 0.90 0.77 0.63 0.46 0.33 0.26 0.32 0.47 0.39 0.53 0.52 0.58 0.56 0.54 0.55 0.46 0.43 0.44 0.49 0.41 0.42 0.42 0.46 0.51 0.45 0.46 0.48 0.42 0.46 0.38 0.53 0.45 0.42 0.44 0.42 0.42 0.43 0.35 0.36 0.38 0.31 0.36 0.38 0.37 0.38 0.41 0.42 0.40 0.43 0.45 0.37 0.33 0.43 0.30 0.25 0.23 0.28 0.24 0.16 0.16 0.16 0.18 0.21 0.23 0.23 0.24 0.23 0.30 0.30 0.31 0.34 0.36 0.39 0.39 0.40 0.42 0.43 0.44 0.45 0.47 0.48
0.49 0.48 0.46 0.60 0.74 0.79 0.84 0.85 0.68 0.56 0.41 0.31 0.31 0.31 0.45 0.46 0.54 0.52 0.55 0.54 0.54 0.49 0.41 0.47 0.41 0.47 0.46 0.42 0.46 0.50 0.51 0.42 0.49 0.43 0.43 0.48 0.40 0.53 0.50 0.51 0.43 0.47 0.46 0.43 0.38 0.39 0.39 0.30 0.33 0.40 0.39 0.40 0.38 0.38 0.30 0.34 0.44 0.45 0.43 0.37 0.41 0.33 0.28 0.24 0.25 0.25 0.22 0.17 0.17 0.18 0.22 0.19 0.28 0.29 0.31 0.30 0.34 0.35 0.37 0.38 0.38 0.39 0.41 0.42 0.43 0.45 0.46 0.48
0.41 0.39 0.39 0.60 0.72 0.78 0.83 0.71 0.56 0.48 0.39 0.30 0.36 0.36 0.47 0.42 0.48 0.53 0.55 0.51 0.46 0.44 0.43 0.43 0.49 0.42 0.45 0.45 0.46 0.42 0.49 0.47 0.46 0.46 0.47 0.50 0.47 0.55 0.52 0.58 0.50 0.49 0.47 0.47 0.43 0.43 0.37 0.39 0.30 0.37 0.43 0.41 0.32 0.36 0.32 0.35 0.34 0.36 0.36 0.34 0.36 0.34 0.39 0.33 0.32 0.26 0.22 0.20 0.20 0.19 0.18 0.22 0.30 0.36 0.34 0.34 0.36 0.38 0.39 0.39 0.40 0.41 0.43 0.44 0.46 0.46 0.47 0.48
0.48 0.39 0.42 0.60 0.67 0.75 0.74 0.57 0.42 0.36 0.37 0.44 0.47 0.44 0.46 0.43 0.49 0.50 0.52 0.53 0.49 0.56 0.46 0.44 0.44 0.41 0.44 0.42 0.44 0.51 0.46 0.48 0.47 0.44 0.47 0.48 0.49 0.41 0.58 0.57 0.58 0.52 0.51 0.47 0.46 0.45 0.40 0.39 0.33 0.37 0.37 0.36 0.37 0.41 0.40 0.39 0.39 0.37 0.35 0.33 0.35 0.33 0.29 0.24 0.22 0.32 0.29 0.24 0.21 0.19 0.18 0.25 0.33 0.40 0.39 0.38 0.40 0.41 0.43 0.42 0.41 0.42 0.43 0.45 0.47 0.48 0.49 0.49
0.40 0.30 0.37 0.63 0.66 0.64 0.55 0.38 0.39 0.46 0.42 0.37 0.37 0.43 0.42 0.54 0.47 0.46 0.48 0.51 0.49 0.45 0.56 0.48 0.48 0.45 0.45 0.45 0.46 0.47 0.47 0.45 0.48 0.47 0.50 0.45 0.54 0.51 0.59 0.65 0.61 0.59 0.49 0.43 0.43 0.51 0.48 0.45 0.40 0.35 0.37 0.38 0.41 0.43 0.45 0.43 0.41 0.40 0.39 0.35 0.38 0.37 0.35 0.29 0.22 0.25 0.29 0.29 0.30 0.28 0.23 0.25 0.37 0.40 0.42 0.43 0.44 0.44 0.45 0.45 0.43 0.42 0.43 0.45 0.48 0.50 0.51 0.52
0.40 0.36 0.56 0.64 0.67 0.58 0.43 0.36 0.41 0.40 0.40 0.44 0.52 0.50 0.51 0.48 0.45 0.48 0.45 0.49 0.44 0.50 0.45 0.43 0.43 0.40 0.48 0.46 0.46 0.45 0.47 0.43 0.46 0.45 0.51 0.53 0.54 0.58 0.64 0.65 0.65 0.60 0.57 0.51 0.50 0.53 0.57 0.44 0.38 0.38 0.41 0.42 0.45 0.49 0.49 0.48 0.44 0.38 0.40 0.42 0.39 0.35 0.36 0.33 0.31 0.32 0.28 0.29 0.27 0.26 0.22 0.26 0.36 0.44 0.46 0.47 0.47 0.47 0.47 0.45 0.43 0.43 0.44 0.46 0.48 0.50 0.51 0.53
0.43 0.42 0.47 0.61 0.67 0.57 0.41 0.30 0.31 0.36 0.40 0.45 0.46 0.44 0.51 0.47 0.46 0.45 0.45 0.49 0.46 0.45 0.43 0.44 0.48 0.50 0.43 0.51 0.48 0.43 0.51 0.37 0.51 0.50 0.49 0.57 0.53 0.69 0.68 0.65 0.66 0.59 0.57 0.57 0.50 0.58 0.42 0.43 0.40 0.33 0.32 0.34 0.38 0.44 0.43 0.47 0.46 0.39 0.37 0.40 0.42 0.43 0.43 0.42 0.40 0.39 0.29 0.29 0.29 0.26 0.19 0.24 0.36 0.44 0.45 0.45 0.46 0.45 0.45 0.46 0.46 0.43 0.46 0.47 0.49 0.52 0.54 0.55
0.45 0.50 0.49 0.54 0.61 0.54 0.38 0.42 0.39 0.37 0.39 0.39 0.41 0.40 0.43 0.44 0.49 0.49 0.48 0.46 0.53 0.49 0.47 0.46 0.47 0.51 0.49 0.53 0.48 0.50 0.52 0.48 0.42 0.53 0.54 0.55 0.55 0.67 0.69 0.67 0.67 0.63 0.68 0.71 0.69 0.69 0.50 0.44 0.41 0.32 0.28 0.25 0.25 0.26 0.29 0.34 0.38 0.42 0.42 0.41 0.42 0.40 0.39 0.36 0.31 0.34 0.27 0.31 0.31 0.26 0.24 0.31 0.39 0.42 0.41 0.43 0.43 0.43 0.45 0.46 0.47 0.47 0.47 0.48 0.50 0.53 0.54 0.54
0.36 0.27 0.39 0.46 0.52 0.50 0.49 0.53 0.47 0.41 0.38 0.39 0.37 0.41 0.43 0.40 0.46 0.50 0.51 0.49 0.54 0.54 0.53 0.50 0.54 0.54 0.49 0.49 0.45 0.45 0.45 0.54 0.47 0.46 0.50 0.50 0.56 0.62 0.65 0.66 0.66 0.64 0.69 0.70 0.69 0.66 0.52 0.51 0.47 0.42 0.36 0.32 0.35 0.39 0.44 0.45 0.40 0.34 0.36 0.38 0.38 0.41 0.42 0.39 0.36 0.31 0.27 0.31 0.30 0.31 0.31 0.32 0.34 0.38 0.40 0.41 0.42 0.42 0.43 0.46 0.46 0.47 0.48 0.50 0.51 0.52 0.53 0.53
0.44 0.32 0.35 0.31 0.45 0.46 0.41 0.45 0.42 0.44 0.39 0.45 0.35 0.41 0.38 0.41 0.44 0.45 0.54 0.43 0.54 0.50 0.50 0.50 0.49 0.44 0.46 0.46 0.44 0.43 0.46 0.46 0.52 0.48 0.47 0.49 0.56 0.60 0.66 0.64 0.65 0.66 0.69 0.65 0.67 0.61 0.51 0.44 0.46 0.45 0.43 0.43 0.45 0.44 0.45 0.44 0.39 0.38 0.37 0.36 0.39 0.40 0.42 0.39 0.34 0.30 0.37 0.33 0.26 0.33 0.36 0.33 0.33 0.37 0.38 0.39 0.40 0.42 0.45 0.46 0.48 0.49 0.50 0.50 0.51 0.53 0.54 0.54
0.30 0.38 0.45 0.47 0.36 0.30 0.33 0.35 0.41 0.40 0.43 0.46 0.39 0.45 0.40 0.39 0.41 0.38 0.48 0.53 0.52 0.55 0.43 0.48 0.49 0.50 0.50 0.47 0.47 0.40 0.44 0.44 0.45 0.42 0.50 0.51 0.51 0.57 0.56 0.63 0.60 0.66 0.66 0.61 0.67 0.57 0.50 0.43 0.48 0.47 0.45 0.46 0.46 0.45 0.46 0.43 0.42 0.40 0.39 0.38 0.37 0.39 0.40 0.36 0.36 0.38 0.37 0.31 0.26 0.33 0.36 0.33 0.35 0.37 0.39 0.40 0.41 0.43 0.45 0.47 0.49 0.51 0.52 0.52 0.51 0.51 0.52 0.53
0.44 0.44 0.45 0.51 0.36 0.40 0.40 0.41 0.43 0.39 0.39 0.43 0.41 0.42 0.39 0.39 0.38 0.44 0.44 0.44 0.47 0.47 0.51 0.38 0.43 0.49 0.50 0.52 0.49 0.43 0.45 0.39 0.39 0.48 0.47 0.48 0.48 0.49 0.48 0.53 0.62 0.66 0.63 0.58 0.59 0.61 0.52 0.44 0.47 0.47 0.45 0.47 0.48 0.48 0.49 0.45 0.44 0.43 0.42 0.42 0.43 0.43 0.41 0.41 0.39 0.39 0.37 0.34 0.35 0.35 0.35 0.34 0.37 0.38 0.41 0.43 0.46 0.47 0.47 0.50 0.51 0.49 0.49 0.50 0.50 0.50 0.51 0.52
0.37 0.36 0.36 0.46 0.44 0.42 0.44 0.42 0.40 0.39 0.35 0.43 0.37 0.40 0.40 0.40 0.39 0.44 0.48 0.45 0.39 0.43 0.54 0.45 0.46 0.49 0.50 0.50 0.51 0.46 0.49 0.51 0.50 0.45 0.52 0.50 0.48 0.50 0.48 0.50 0.50 0.60 0.61 0.54 0.54 0.59 0.50 0.42 0.49 0.48 0.43 0.42 0.46 0.49 0.50 0.48 0.46 0.41 0.43 0.44 0.45 0.44 0.43 0.43 0.42 0.41 0.42 0.39 0.39 0.38 0.37 0.35 0.41 0.45 0.45 0.48 0.49 0.49 0.49 0.46 0.46 0.48 0.49 0.49 0.50 0.50 0.49 0.49
0.52 0.56 0.52 0.40 0.35 0.40 0.43 0.40 0.38 0.38 0.35 0.39 0.36 0.40 0.41 0.42 0.40 0.46 0.44 0.53 0.47 0.44 0.49 0.45 0.49 0.49 0.52 0.51 0.51 0.50 0.57 0.57 0.57 0.57 0.59 0.56 0.44 0.53 0.47 0.49 0.58 0.50 0.54 0.53 0.54 0.54 0.54 0.45 0.50 0.45 0.37 0.36 0.42 0.43 0.45 0.48 0.47 0.44 0.42 0.42 0.43 0.42 0.39 0.40 0.39 0.41 0.39 0.35 0.37 0.37 0.34 0.33 0.40 0.47 0.48 0.47 0.47 0.46 0.44 0.44 0.45 0.47 0.50 0.51 0.50 0.49 0.48 0.48
0.59 0.61 0.60 0.50 0.36 0.43 0.38 0.41 0.40 0.38 0.32 0.40 0.40 0.41 0.39 0.40 0.45 0.46 0.39 0.51 0.54 0.54 0.51 0.49 0.48 0.46 0.46 0.47 0.46 0.52 0.60 0.62 0.62 0.64 0.64 0.64 0.63 0.59 0.59 0.57 0.58 0.54 0.52 0.51 0.55 0.49 0.50 0.46 0.41 0.41 0.35 0.33 0.39 0.43 0.43 0.44 0.42 0.36 0.36 0.41 0.43 0.42 0.43 0.42 0.42 0.42 0.39 0.38 0.33 0.31 0.32 0.40 0.44 0.47 0.44 0.44 0.45 0.45 0.46 0.46 0.47 0.49 0.51 0.51 0.49 0.48 0.48 0.49
Wind_Speed
14 13 13 13 13 13 12 12 12 12 11 11 10 10 10 10 10 9 9 9 8 8 7 7 7 8 8 8 8 8 8 8 8 9 9 10 9 9 8 8 7 7 6 6 6 6 6 6 7 7 7 7 8 8 8 8 9 9 9 10 11 12 12 11 11 12 12 12 13 13 13 14 16 17 18 17 16 17 16 15 15 16 16 16 16 17 17 17
14 14 14 14 14 13 13 12 12 12 12 11 11 10 10 10 10 10 9 9 8 8 7 7 8 8 8 8 9 9 8 8 9 10 10 10 9 9 8 7 7 6 6 6 5 5 5 6 7 6 6 7 7 7 7 8 8 8 9 9 11 10 10 10 10 11 11 12 13 14 14 14 15 17 17 17 18 17 15 15 15 15 15 15 16 16 16 16
15 15 14 14 14 14 14 13 13 13 12 12 11 11 11 10 10 10 9 9 8 8 8 8 8 8 8 9 9 9 9 9 9 9 10 9 9 9 8 7 6 6 6 6 6 5 5 6 6 6 5 6 6 6 6 7 7 8 8 9 10 10 10 11 11 12 13 13 14 14 14 13 15 16 16 16 18 17 16 16 15 15 16 16 16 16 16 16
15 15 15 15 15 14 14 14 13 13 13 12 11 11 11 10 10 10 9 9 8 8 8 8 8 8 8 9 9 9 8 8 8 9 9 8 7 7 7 6 6 6 6 6 6 5 5 5 5 5 4 5 6 5 6 7 7 8 7 9 10 9 10 11 11 13 13 13 13 13 13 14 15 15 15 16 17 17 18 17 16 16 17 17 18 18 17 17
16 16 16 15 15 15 15 14 14 13 13 12 11 11 11 10 10 10 9 9 8 8 8 8 9 9 9 9 9 9 8 7 8 9 9 7 6 6 5 5 5 5 5 5 5 5 4 4 4 4 4 4 4 4 6 7 7 7 9 10 10 8 10 11 11 12 12 11 12 13 12 13 14 14 15 15 17 18 19 18 17 17 17 18 19 19 18 18
16 16 16 16 16 16 15 15 14 14 13 12 11 11 10 10 10 9 9 9 8 8 8 9 9 9 9 9 8 9 8 8 9 9 8 6 6 5 5 5 5 5 4 4 5 4 4 4 4 4 4 4 4 5 7 8 7 7 9 10 10 9 10 12 11 11 11 10 11 12 13 13 12 14 15 15 17 20 20 20 20 19 18 18 19 20 20 19
17 17 17 17 16 16 16 15 15 14 13 12 11 11 10 10 10 9 9 8 8 9 9 9 9 9 9 9 8 8 8 9 10 8 7 6 6 5 5 5 5 5 5 4 4 4 4 3 3 4 4 4 5 6 7 7 6 7 8 9 9 9 10 12 12 12 12 11 13 13 13 13 13 14 15 16 19 20 20 20 20 20 18 17 19 20 20 19
18 17 17 17 17 17 16 16 15 14 13 12 12 11 11 10 10 9 9 8 8 9 9 9 9 9 9 8 8 9 9 9 9 7 7 6 6 5 5 5 6 5 5 5 5 4 4 3 4 4 5 5 5 6 6 6 6 6 8 9 9 8 10 12 12 13 13 13 14 14 14 14 13 14 14 16 18 18 19 18 19 21 18 17 18 20 19 18
18 18 18 18 18 17 17 16 16 15 14 13 12 11 11 10 10 9 9 9 9 9 9 9 9 9 9 8 8 9 9 9 8 7 6 6 6 6 6 6 6 6 6 6 6 5 4 4 5 5 6 6 6 7 6 6 7 7 8 9 9 10 11 12 12 13 13 14 13 13 14 13 12 12 13 15 16 16 16 15 17 20 18 16 17 18 19 19
19 19 18 18 18 18 17 17 16 15 14 13 12 12 11 11 10 10 9 9 9 9 9 9 9 9 9 8 8 8 9 9 9 8 7 6 7 7 7 7 7 7 7 7 6 6 5 5 6 6 6 6 6 7 6 5 7 8 9 9 10 11 12 11 12 12 12 13 11 10 12 11 11 11 12 14 14 14 14 13 16 19 19 18 16 17 19 18
19 19 19 19 19 18 18 17 17 16 14 14 13 12 12 11 11 10 10 10 10 9 9 9 9 9 9 8 7 9 9 8 9 8 8 7 7 8 8 8 8 8 7 7 8 8 6 7 6 6 7 7 7 8 7 7 8 9 9 9 10 11 10 9 9 10 10 10 9 8 8 10 11 11 11 13 13 13 12 12 15 17 18 19 17 17 17 17
19 19 19 19 19 19 18 17 17 16 15 14 13 13 12 12 11 11 11 11 10 10 10 10 9 9 9 9 9 10 9 9 9 9 9 9 8 9 8 9 9 9 9 8 9 9 8 7 6 7 8 8 8 8 8 8 8 9 7 8 10 9 8 8 8 8 9 8 7 6 8 11 11 12 13 13 12 11 9 10 13 14 15 18 18 18 17 17
20 20 20 19 19 19 19 18 17 17 16 14 14 13 13 13 12 12 12 11 11 10 10 10 10 9 9 9 10 9 9 9 9 9 9 9 9 10 9 9 9 10 10 9 9 8 8 8 6 7 8 7 8 8 7 8 8 8 7 7 8 8 8 8 8 9 9 7 8 6 8 11 11 13 13 10 9 8 6 7 9 10 12 15 16 16 16 16
21 21 20 20 20 19 19 18 18 17 16 15 14 13 13 13 13 13 13 12 12 11 11 10 10 9 8 10 10 9 10 9 9 9 9 9 10 10 10 10 10 10 10 10 9 9 8 8 7 7 8 7 8 8 8 8 7 7 7 7 7 6 8 9 9 9 8 7 8 6 7 10 11 12 9 5 5 4 3 4 5 6 9 12 13 13 14 15
21 21 21 20 20 20 19 19 18 17 16 15 14 14 13 13 13 13 13 13 12 12 11 10 10 8 9 10 10 9 10 9 9 9 9 9 10 11 11 10 9 10 10 10 10 9 8 8 7 7 8 7 7 7 7 8 7 6 6 7 8 6 8 10 9 7 8 8 7 5 7 10 10 11 8 4 4 2 2 3 2 3 6 9 10 10 11 12
21 21 21 21 20 20 20 19 18 18 17 16 15 14 13 13 13 13 13 13 12 12 11 10 10 9 9 9 9 8 9 9 9 9 9 9 10 10 10 9 9 9 9 9 9 9 9 8 7 7 7 7 6 6 6 7 7 7 5 6 8 7 8 9 8 7 7 7 7 6 7 9 9 10 9 6 4 1 1 2 2 3 5 6 8 8 9 10
22 22 21 21 21 20 20 19 19 18 17 17 16 14 13 13 12 13 13 12 12 12 12 12 11 10 10 10 9 8 8 9 9 9 10 10 10 10 10 9 9 9 9 8 8 8 8 8 7 7 7 7 7 6 6 6 7 8 7 7 8 8 8 9 9 9 8 7 8 7 6 7 8 9 8 7 5 3 1 2 2 3 5 6 7 8 8 9
22 22 22 21 21 20 20 19 19 18 17 17 16 14 13 12 12 12 12 12 12 12 12 13 11 10 11 11 10 9 8 9 9 9 10 10 10 10 10 9 9 9 8 8 7 7 8 8 7 7 7 7 7 6 6 7 7 7 7 7 8 8 8 9 10 9 9 7 7 7 7 8 8 10 8 7 6 4 3 3 3 3 4 5 7 9 9 8
23 22 22 21 21 20 20 19 19 18 17 17 15 13 13 12 12 12 12 13 13 13 13 13 11 11 11 11 11 10 10 10 10 10 10 10 9 9 10 10 9 9 8 8 8 8 8 8 7 7 8 8 7 6 7 8 7 7 7 7 8 8 9 10 10 10 8 7 7 7 8 8 8 10 9 7 6 5 5 5 5 5 4 5 6 8 9 9
23 23 22 22 21 20 20 19 18 17 16 15 14 13 12 12 12 12 13 15 15 14 14 14 13 13 13 12 12 11 11 11 10 10 10 9 9 8 9 9 9 9 9 9 9 9 8 8 9 9 9 9 9 8 7 7 7 7 7 7 8 8 10 10 10 10 8 7 8 8 7 8 9 11 10 8 7 6 5 6 6 7 6 6 6 7 8 9
23 23 23 22 21 20 19 19 18 17 15 14 13 12 12 12 12 13 14 15 15 15 15 15 14 15 15 14 13 12 11 10 10 11 10 9 8 8 9 8 8 9 10 10 10 9 8 9 10 10 10 10 9 9 8 7 7 7 7 8 9 9 10 10 9 11 9 7 8 8 8 8 10 12 10 8 8 7 7 7 8 8 7 7 6 6 8 8
24 23 23 22 21 20 19 19 18 16 14 13 12 11 11 12 12 14 13 13 15 15 15 14 13 14 15 14 13 12 10 9 10 11 10 9 9 9 9 7 8 10 10 9 9 9 9 10 12 11 10 9 8 8 8 8 7 7 7 7 9 9 10 10 10 10 8 7 8 8 8 9 11 12 10 9 9 9 8 8 8 8 8 8 7 7 7 8
24 23 23 22 21 20 20 19 17 15 13 12 12 11 11 12 13 14 13 13 14 14 13 13 12 13 13 13 13 11 9 9 10 10 10 9 9 10 9 7 8 10 10 9 10 9 10 11 11 10 9 9 9 8 7 7 7 7 7 7 9 9 9 9 9 9 8 7 8 8 8 10 11 10 9 10 10 9 9 8 8 9 9 9 8 8 8 7
23 23 22 22 21 20 20 19 16 13 12 12 12 11 12 13 13 13 12 12 12 12 12 11 11 11 11 11 10 9 9 9 9 10 9 9 9 9 9 8 8 9 11 10 10 10 12 13 10 8 8 9 9 8 7 8 9 9 8 8 9 9 8 8 9 9 9 9 8 7 9 10 11 10 10 10 9 9 10 9 8 9 9 9 9 9 8 8
23 23 22 22 21 21 20 17 13 12 13 12 11 12 13 14 13 12 11 10 10 11 10 9 9 10 10 9 9 9 8 9 10 10 9 9 9 9 9 10 9 10 12 10 9 11 13 13 10 8 8 8 8 8 9 9 9 10 10 10 9 9 8 8 8 8 8 9 9 8 8 10 10 9 10 10 9 9 9 9 9 9 9 9 9 9 9 9
24 23 22 21 20 21 19 14 12 14 13 11 11 12 13 13 12 10 9 8 9 10 9 8 8 8 9 8 8 8 7 8 9 9 9 10 10 9 9 10 10 11 12 10 10 11 12 12 9 9 8 7 7 9 10 8 8 10 11 10 9 8 7 8 8 8 8 9 10 9 8 10 10 9 10 10 9 9 9 9 10 9 9 10 10 10 10 10
24 23 23 22 20 19 16 13 14 14 12 12 12 12 13 13 10 9 8 8 8 9 8 8 8 8 9 8 8 7 7 8 8 8 9 9 9 8 9 10 10 10 10 9 10 11 12 11 9 9 8 7 8 10 10 8 7 11 11 8 7 7 7 8 7 8 9 10 11 10 8 9 11 11 11 9 9 10 10 11 11 10 10 10 11 11 11 11
24 24 23 22 20 18 15 13 14 13 12 12 13 13 13 11 9 7 6 6 8 8 7 8 8 8 8 9 8 8 8 8 7 8 8 8 8 8 8 10 10 10 10 9 11 11 10 11 10 9 8 9 10 10 9 8 8 11 10 7 8 8 8 8 7 8 10 10 11 12 9 9 11 11 10 9 9 11 12 13 12 11 11 11 11 11 11 11
25 24 23 22 19 16 14 13 12 12 12 12 13 12 11 9 7 6 5 6 7 7 7 8 8 8 8 8 9 8 8 8 7 8 8 8 9 8 8 9 9 9 9 9 11 12 10 11 11 9 9 11 11 10 9 8 9 10 7 7 8 8 8 8 8 9 9 9 11 12 10 9 10 11 9 9 11 13 12 12 13 13 12 12 12 12 12 11
26 25 23 21 18 15 13 13 12 11 12 12 12 11 9 7 6 5 6 6 6 6 7 7 8 9 8 7 9 9 9 9 8 8 8 8 9 8 8 9 8 8 10 10 11 12 11 11 11 10 10 11 10 9 9 8 8 8 7 7 9 9 9 10 10 9 8 10 11 11 10 8 10 10 9 9 11 11 11 11 12 13 14 14 14 13 13 12
26 25 23 20 17 14 13 12 11 11 11 11 10 9 7 7 6 5 6 7 7 7 7 7 8 8 7 7 9 9 9 9 9 8 9 9 9 8 8 9 8 8 9 10 11 12 11 10 11 11 11 10 9 8 9 9 8 7 8 8 9 10 10 10 10 9 8 10 10 10 9 8 9 10 10 10 11 10 10 12 12 13 15 15 14 14 14 13
26 25 22 19 16 14 12 11 11 11 11 10 8 7 6 6 6 6 7 7 7 7 7 8 8 8 9 8 9 10 9 9 9 8 9 9 9 9 9 9 9 9 10 10 10 11 11 12 11 11 11 10 9 9 10 9 8 7 7 7 8 9 9 9 10 9 9 10 10 9 9 8 10 11 10 11 12 10 11 12 12 14 15 15 15 15 15 14
26 24 21 18 16 14 11 10 10 10 10 9 7 6 5 5 5 6 7 7 6 7 7 8 9 9 9 9 9 10 9 9 9 8 8 9 9 10 11 10 10 10 10 10 9 9 10 12 12 11 11 10 9 10 10 10 9 8 8 7 7 7 7 9 10 9 10 10 9 10 9 9 10 11 10 11 12 12 12 12 13 14 15 16 15 15 15 15
25 22 19 17 16 14 11 10 10 10 10 8 6 6 6 5 5 5 6 7 7 8 8 8 9 9 8 9 9 10 9 9 9 9 9 9 9 10 11 11 10 10 10 10 10 9 9 11 11 11 11 10 10 11 11 10 9 10 9 8 9 8 8 10 10 9 10 10 9 10 9 8 8 9 9 9 11 12 12 12 12 13 14 15 15 15 15 16
24 20 18 17 16 14 12 10 10 10 10 8 6 6 5 6 6 5 6 7 7 8 9 9 8 7 8 8 9 8 8 9 9 8 9 9 9 10 11 11 10 9 9 10 11 10 9 11 12 12 11 9 9 11 11 10 10 11 10 9 10 10 9 9 9 9 9 9 10 10 10 9 10 10 11 10 10 10 9 9 9 10 12 13 14 15 16 16
21 18 16 16 16 15 13 11 11 11 9 7 6 6 5 5 6 5 6 7 7 8 9 9 8 7 8 9 9 9 9 9 9 9 9 9 9 10 10 10 10 9 9 10 10 10 9 11 12 11 11 10 10 11 11 11 11 11 10 11 11 10 8 8 10 9 8 9 10 10 10 11 11 11 11 10 9 9 8 8 8 10 11 13 14 15 15 16
20 16 15 15 16 16 14 12 12 11 9 7 6 6 5 5 6 6 7 7 8 7 7 8 8 8 9 10 10 11 10 10 9 9 10 11 10 10 10 11 10 10 10 10 11 11 10 11 12 11 11 12 11 11 11 11 11 10 11 12 11 10 9 9 9 9 9 10 11 10 10 11 10 10 11 10 9 10 9 8 8 9 11 13 14 15 15 16
19 15 13 15 16 16 14 13 13 12 9 7 6 6 5 6 6 7 7 7 7 7 6 7 9 8 9 10 11 11 11 10 10 10 10 11 11 10 10 11 10 10 10 10 10 11 10 11 12 11 12 13 12 11 12 13 12 11 12 11 10 10 10 9 9 9 9 10 11 10 11 11 10 11 11 11 11 11 9 9 9 10 12 14 15 15 16 16
17 14 13 15 16 15 14 13 13 11 9 8 7 6 6 6 7 7 8 8 7 7 7 8 9 9 10 10 11 12 12 11 11 10 10 10 11 11 10 11 11 11 11 11 10 11 10 11 12 12 12 13 12 11 13 13 13 12 12 11 11 11 10 10 10 9 9 10 10 11 10 10 11 12 11 11 11 10 10 10 10 12 13 14 15 15 16 16
15 13 13 15 16 14 13 13 13 11 10 8 6 6 7 7 7 8 8 8 8 8 8 9 10 10 11 11 12 12 13 13 13 12 11 11 12 12 11 12 13 13 12 11 11 12 11 11 13 13 12 13 13 13 13 13 12 12 12 12 12 12 11 11 11 10 9 9 10 10 10 11 12 11 11 12 12 11 11 11 12 13 14 15 16 16 16 16
15 13 13 16 16 13 12 12 12 11 9 8 7 7 8 7 8 9 9 8 8 8 8 9 10 10 11 12 12 12 13 13 14 13 12 12 12 13 13 12 13 14 13 12 11 12 12 12 13 14 13 14 15 15 14 14 14 13 13 14 13 12 11 11 12 12 11 10 10 10 11 12 12 11 12 13 12 12 13 13 13 14 15 16 17 17 17 17
15 13 14 16 16 13 11 12 12 11 9 9 8 8 8 8 8 9 10 9 8 8 8 8 9 10 11 12 12 13 13 13 14 13 12 12 12 13 13 13 14 14 13 12 13 13 13 12 13 14 14 15 16 16 14 14 14 13 14 14 13 13 12 12 12 13 12 11 11 10 11 12 13 12 12 13 13 13 14 14 15 15 16 17 17 17 17 18
15 14 15 17 16 12 11 12 12 11 10 10 9 8 8 9 8 9 9 9 8 8 9 9 9 10 10 11 12 12 13 13 13 12 12 12 12 12 12 13 14 13 12 12 13 13 12 12 13 14 14 14 15 15 14 13 12 12 14 14 13 14 14 14 13 12 12 12 11 11 12 12 13 13 13 13 14 14 15 15 16 16 17 17 18 18 18 18
14 14 15 17 16 13 11 11 11 11 11 11 11 10 10 9 9 9 9 9 9 9 9 10 9 9 10 10 10 12 12 12 12 12 12 13 13 12 11 12 13 13 12 13 13 12 12 12 11 11 12 12 12 12 12 13 12 12 13 14 13 13 12 13 14 13 13 13 12 12 13 14 14 14 14 14 14 15 16 16 16 17 17 17 18 18 19 19
15 14 15 17 17 14 12 10 10 10 11 11 11 11 11 10 10 10 9 10 10 9 9 10 10 9 9 10 10 11 11 11 12 13 13 14 14 13 12 12 13 14 13 13 13 12 12 12 11 11 11 11 11 11 12 12 12 13 13 14 13 12 12 13 14 13 14 14 13 13 14 15 16 15 16 16 15 16 17 17 17 17 18 18 18 19 19 19
14 14 14 16 16 15 13 12 12 11 11 11 11 11 11 11 11 11 10 10 10 10 10 11 10 10 10 11 11 12 11 11 12 13 13 14 14 14 14 14 14 15 13 12 13 13 12 12 13 13 14 14 13 13 13 13 13 14 15 15 15 14 14 14 14 15 15 15 15 16 16 17 17 17 18 17 17 17 18 17 16 17 18 18 18 19 19 19
14 13 13 14 14 14 13 14 14 12 11 11 11 11 11 11 11 11 11 10 10 10 10 10 11 11 11 12 12 12 13 12 13 14 14 14 14 15 15 15 15 15 13 12 13 13 12 13 14 14 16 16 15 15 14 14 15 15 16 16 16 15 15 15 16 17 16 15 17 17 16 17 18 18 18 19 18 18 18 18 18 17 17 18 18 18 18 19
14 13 13 13 13 13 13 14 14 13 12 11 11 11 12 12 12 11 11 11 11 11 11 11 12 12 12 13 12 13 14 14 14 14 13 13 13 14 15 15 15 14 13 12 13 13 13 14 14 14 16 16 16 16 15 15 16 16 16 17 18 17 16 17 19 18 16 17 19 18 16 17 18 18 19 19 18 17 18 19 18 18 17 17 17 17 18 18
13 13 13 13 13 11 12 14 14 13 13 12 12 12 12 12 12 12 11 12 12 12 11 11 12 13 13 13 13 13 14 14 14 14 13 13 13 13 13 14 14 13 12 12 13 13 13 14 14 14 15 16 16 16 16 16 17 17 17 18 18 18 18 18 19 19 18 20 20 19 19 19 18 18 19 19 18 17 18 18 18 18 17 16 16 17 17 18
14 13 13 13 13 12 12 13 13 13 14 13 13 12 12 12 13 13 12 12 12 12 12 12 13 14 14 14 13 14 14 14 15 15 14 14 13 13 13 13 12 12 13 13 13 13 13 14 14 13 14 15 16 16 16 16 17 18 19 19 18 19 19 18 18 18 18 20 20 19 19 19 17 17 18 18 17 16 16 17 17 17 16 15 16 17 17 17
14 13 13 13 13 13 13 13 13 12 13 14 13 13 13 12 12 13 13 12 11 11 12 12 14 15 14 14 15 15 15 15 16 17 16 16 15 14 14 13 13 13 14 14 15 14 14 15 14 14 15 16 16 16 15 15 17 19 20 20 19 19 19 17 17 17 17 17 17 16 17 17 15 14 15 16 15 15 16 17 17 17 16 15 16 17 17 17
14 14 13 13 13 14 13 13 13 13 13 13 13 13 13 13 13 13 13 13 11 11 13 14 14 15 15 15 16 16 17 17 17 18 17 17 17 16 16 17 16 16 15 14 15 15 15 16 16 15 16 16 15 14 14 14 16 17 17 17 17 17 16 15 15 15 14 13 13 14 15 15 14 13 14 15 14 14 16 17 16 16 15 15 16 16 16 16
Wind_Direction
347 344 342 339 337 334 329 326 322 319 316 310 305 302 299 297 296 296 294 292 291 288 283 279 280 280 279 279 280 281 282 278 278 282 282 279 277 277 280 272 258 255 256 263 269 264 262 267 270 264 253 255 258 254 255 257 257 264 268 268 269 269 271 271 269 271 272 274 272 272 272 266 268 273 272 272 274 276 277 272 268 264 258 254 250 245 240 233
345 344 342 339 336 333 330 326 322 319 315 311 306 302 298 297 295 294 292 289 287 283 280 279 281 280 279 280 279 281 281 278 283 284 281 281 275 272 275 269 254 250 255 263 267 260 258 264 267 261 253 254 259 257 255 258 259 266 269 268 268 266 271 274 272 275 276 274 273 276 276 269 267 271 273 272 271 275 277 272 268 261 254 252 249 244 240 234
344 342 340 338 336 334 331 327 323 320 316 313 307 302 299 296 294 293 291 287 284 280 278 280 281 282 281 280 279 281 280 282 285 283 284 284 274 269 268 258 246 249 257 260 260 257 256 260 261 257 253 252 256 256 257 262 261 265 267 268 271 269 275 278 276 276 275 275 277 279 278 274 270 272 275 270 269 274 271 267 267 260 249 247 246 243 241 236
341 340 338 337 335 334 331 329 325 321 317 314 308 304 300 297 294 292 289 285 280 277 276 278 281 282 282 281 280 277 279 286 285 282 287 283 271 266 258 247 243 250 258 260 261 261 259 259 258 254 250 255 263 263 263 268 267 268 264 264 272 276 279 278 276 279 279 277 279 282 285 281 276 276 275 270 270 272 266 261 263 258 247 241 241 241 240 236
337 337 336 335 334 333 331 329 326 321 318 314 309 305 301 298 296 293 289 283 278 275 274 277 281 281 281 281 278 275 278 287 285 284 285 275 265 259 249 244 244 248 254 257 261 261 261 257 254 253 254 259 270 278 272 271 271 272 269 268 275 280 281 280 278 283 284 284 284 287 290 285 283 283 276 272 271 268 263 258 256 253 247 240 238 237 236 234
334 334 334 334 333 331 330 328 325 322 318 314 310 306 302 298 297 295 290 283 278 275 274 277 280 280 281 279 274 274 274 276 284 285 277 262 256 252 247 247 245 247 250 255 260 258 255 257 250 246 257 261 262 272 276 279 277 276 280 279 279 276 278 283 282 281 284 288 287 287 289 288 292 289 281 277 273 268 263 257 253 250 246 241 237 235 233 233
332 332 332 332 331 329 328 327 325 321 317 313 309 305 301 298 297 295 290 284 279 277 277 278 279 280 281 277 272 277 274 272 283 282 265 255 252 250 249 251 247 247 249 251 254 247 244 253 250 242 258 265 262 270 281 292 285 276 283 283 282 276 274 283 285 284 285 285 284 287 290 289 291 290 287 282 278 274 268 260 252 246 244 242 237 234 232 231
329 329 329 330 329 328 327 326 324 320 316 312 307 303 300 298 296 293 290 285 281 280 279 279 280 280 279 275 275 283 278 272 279 276 257 250 251 249 250 256 252 248 247 246 243 239 239 252 256 252 263 262 261 275 286 302 297 281 280 282 287 284 282 289 292 290 289 286 285 286 287 288 289 289 287 283 282 280 270 261 249 242 243 244 238 234 232 230
327 327 327 328 328 327 326 325 323 320 315 310 305 301 298 296 294 292 289 286 284 282 281 281 280 279 277 275 280 286 276 268 272 268 252 247 250 248 251 254 251 245 244 244 239 236 243 255 261 258 260 260 265 281 287 296 289 276 280 286 288 288 289 293 293 292 292 289 285 282 285 290 292 294 293 287 285 284 274 261 247 240 238 237 236 232 229 228
326 325 325 325 325 325 324 324 322 319 315 309 303 298 294 292 290 288 286 285 285 283 284 283 281 278 276 278 283 282 273 269 269 261 249 249 251 253 255 251 246 243 241 241 236 235 244 252 261 259 258 263 269 280 285 286 283 276 280 287 286 288 292 292 292 293 296 294 285 281 286 293 298 300 296 290 290 286 275 260 247 242 235 231 233 230 226 226
325 324 323 323 323 323 322 321 321 319 314 309 302 296 291 288 286 285 284 283 283 283 285 284 283 279 275 277 278 273 271 270 267 258 249 250 252 254 254 248 245 242 240 241 240 242 249 253 261 265 263 266 270 278 278 278 285 281 284 291 292 298 300 294 293 297 304 301 285 279 291 303 309 304 292 290 294 288 272 259 251 245 237 231 229 227 225 226
323 322 322 321 321 321 321 319 318 317 313 308 302 295 289 285 282 281 281 281 282 282 284 285 284 280 277 278 272 269 270 266 265 262 253 252 254 254 254 251 248 244 243 246 249 250 254 258 266 271 266 265 271 279 278 280 287 286 293 298 299 311 309 298 302 307 315 308 289 290 307 311 310 305 297 295 297 291 276 265 258 250 238 231 227 227 228 229
321 321 320 319 318 319 318 317 316 315 312 307 302 296 289 284 280 279 279 279 279 280 282 283 284 282 279 275 271 270 269 266 266 263 258 256 256 257 256 254 251 247 245 246 252 254 256 260 267 270 266 263 268 275 283 290 289 283 293 299 301 313 305 301 309 313 323 314 297 305 308 303 304 306 304 300 302 300 293 282 265 251 238 229 228 229 230 230
321 319 318 318 317 316 316 315 314 313 310 306 302 297 290 285 280 278 276 275 276 278 279 280 282 281 277 271 270 272 270 268 267 260 257 256 255 258 258 255 253 249 245 247 252 255 257 261 268 269 264 262 266 274 288 296 292 283 290 297 302 302 294 303 307 310 325 315 303 310 301 298 303 310 313 313 316 320 330 316 276 248 231 222 222 222 226 230
322 319 318 317 315 314 314 313 312 311 309 305 302 297 291 285 280 277 274 273 274 275 275 277 277 278 279 273 269 271 269 267 267 259 256 256 253 254 256 254 253 248 242 247 253 255 259 263 267 266 260 263 272 278 285 291 294 291 289 292 300 298 293 302 304 306 315 308 311 314 297 299 301 303 311 321 327 348 3 335 291 235 215 214 216 213 217 225
322 320 319 317 315 313 312 311 310 309 308 305 303 297 290 286 281 276 272 270 272 271 273 274 273 274 274 270 268 271 266 263 267 263 259 259 254 251 251 251 251 247 242 246 252 255 259 262 263 261 257 263 269 273 283 289 292 291 284 283 293 299 297 300 304 308 308 303 311 310 290 298 301 298 305 312 309 324 -0 326 282 229 214 212 215 208 201 210
322 321 319 317 315 314 312 310 308 306 305 304 302 296 291 288 282 277 272 269 268 268 269 270 270 271 267 265 270 272 266 264 269 267 263 262 257 251 248 248 248 246 244 246 251 252 256 258 257 259 263 266 264 268 280 285 285 286 289 289 290 293 295 299 302 307 314 304 301 305 291 289 295 295 302 309 299 279 270 276 254 225 218 212 208 204 197 203
323 321 319 317 315 314 313 311 308 305 303 302 300 295 291 285 281 279 272 269 270 268 268 267 267 268 265 263 264 266 265 268 271 268 265 262 256 251 246 246 247 247 247 248 251 251 252 255 255 260 270 273 270 269 269 270 274 278 282 290 294 295 294 295 296 300 311 304 294 302 294 284 289 289 290 297 293 273 267 271 263 245 228 218 209 205 206 212
323 322 320 318 316 314 313 312 309 305 302 299 297 295 291 285 283 278 272 272 274 269 264 262 259 258 260 259 258 263 269 271 272 269 264 258 252 249 246 248 250 247 244 245 253 253 249 254 257 259 263 262 258 254 256 261 265 268 271 277 285 290 293 293 292 292 299 295 287 283 279 283 289 284 277 278 279 267 263 263 257 254 244 231 220 216 219 223
325 323 321 319 317 314 312 311 310 306 303 298 293 293 290 288 285 278 276 277 272 265 261 258 254 255 258 258 259 267 273 273 270 267 262 253 246 242 246 253 254 249 242 240 250 254 248 251 252 248 250 251 250 250 256 261 262 268 274 279 282 283 290 294 293 294 294 283 281 275 273 286 292 286 281 277 275 263 253 251 249 248 244 235 226 226 229 228
326 324 322 320 318 316 313 311 310 306 302 297 295 292 284 286 285 280 281 278 270 265 263 259 254 255 256 255 259 267 272 272 269 265 259 250 241 238 247 253 251 249 247 242 247 254 252 250 248 244 248 252 251 251 255 260 264 270 273 280 287 283 284 289 290 295 297 282 281 283 282 290 291 287 283 279 276 262 244 240 245 244 241 241 234 233 233 231
326 324 322 320 319 317 314 312 309 305 301 298 299 293 283 284 285 283 282 275 271 266 262 261 259 256 255 253 255 258 263 268 271 268 257 246 242 242 248 251 243 245 250 250 250 259 260 250 246 249 251 253 254 248 249 259 263 267 272 280 288 287 288 292 292 297 299 289 286 286 284 287 289 286 281 279 279 270 258 253 252 244 240 243 242 240 235 232
327 325 323 320 319 318 317 314 308 303 301 298 298 295 290 289 287 287 284 274 273 268 260 261 259 254 251 249 247 247 251 257 264 268 254 240 241 242 242 244 245 247 251 249 244 251 256 248 246 250 248 250 258 254 249 262 268 268 271 279 285 287 289 289 290 295 299 297 291 287 287 289 291 291 284 281 280 273 271 269 265 256 248 247 246 246 243 236
329 328 326 322 319 318 317 315 308 303 302 298 294 293 296 296 291 288 284 277 274 268 259 255 252 245 241 241 238 237 247 252 257 263 251 236 239 245 242 242 248 251 251 247 241 245 250 249 250 254 251 250 258 261 255 258 270 274 269 269 277 280 277 277 286 293 299 304 300 299 299 292 290 287 280 282 280 272 271 267 264 262 255 251 248 248 248 244
331 329 328 325 322 319 317 315 309 306 305 299 293 294 299 301 294 284 279 279 274 267 260 251 247 240 234 236 234 236 251 257 256 258 250 239 239 247 250 248 250 253 252 250 248 248 250 251 252 255 258 258 258 263 259 252 265 277 270 261 265 269 270 278 291 299 302 302 300 305 302 289 290 284 275 279 274 265 268 265 264 263 253 248 246 247 249 249
333 330 329 327 324 321 318 312 307 308 305 300 296 297 302 303 296 282 274 279 273 266 259 247 243 238 234 236 238 242 258 264 259 257 252 246 244 247 251 254 257 254 251 252 254 252 250 251 251 249 252 259 265 269 263 253 262 275 270 261 261 268 274 279 288 295 292 289 292 300 293 284 289 282 272 275 267 259 262 262 263 259 250 246 245 246 249 249
336 333 330 328 326 324 319 310 307 307 302 299 298 300 304 303 295 282 275 275 269 264 256 246 242 237 237 243 243 242 254 265 267 262 254 248 249 251 251 256 259 257 253 255 259 254 247 251 255 254 255 260 266 269 263 254 261 270 270 264 261 267 270 272 283 288 284 286 293 299 293 284 285 278 273 272 262 259 258 255 258 255 249 247 243 244 246 245
338 335 332 328 325 323 317 312 310 307 302 300 299 300 303 300 290 282 275 265 262 260 250 243 240 238 244 248 245 243 253 265 270 266 257 248 252 258 256 252 249 254 256 250 253 254 248 250 250 248 254 258 260 263 256 252 265 270 271 271 269 269 268 272 281 284 287 292 292 294 293 286 284 281 279 272 256 255 254 251 253 252 249 246 241 239 238 239
340 337 334 330 326 321 317 315 312 308 306 306 305 301 299 295 286 281 270 256 258 257 247 242 240 244 253 252 249 253 261 265 264 261 258 250 254 261 258 252 246 252 259 251 248 251 251 251 245 241 250 254 259 264 254 251 269 273 274 284 284 283 281 281 281 281 291 291 282 286 289 285 286 282 275 269 259 256 254 254 255 251 249 246 240 236 234 235
341 339 336 333 330 324 320 318 312 308 310 311 311 308 300 292 285 279 269 258 256 260 253 243 241 249 257 255 256 259 260 262 262 259 257 254 259 263 258 258 257 255 263 265 253 250 256 257 250 249 253 251 256 266 260 258 270 274 279 288 287 287 285 284 285 285 291 289 281 284 284 280 286 283 271 268 269 263 253 253 254 249 245 242 239 237 235 237
342 340 338 336 334 328 323 320 315 311 312 312 317 319 308 295 284 266 262 260 259 265 260 247 247 255 259 257 259 259 259 266 264 256 254 257 262 264 260 264 268 265 270 271 259 256 263 260 254 258 257 252 256 266 266 270 276 276 280 281 277 282 286 286 289 289 285 285 284 285 286 279 279 282 278 274 279 274 255 249 248 244 242 241 240 238 237 240
342 341 340 339 337 331 325 320 318 317 315 313 319 327 322 308 289 262 262 267 263 264 259 252 254 259 262 260 258 260 262 267 265 254 251 255 259 260 259 258 261 268 271 265 260 263 261 255 259 266 260 251 251 257 264 274 279 276 277 278 274 282 290 285 286 287 280 280 282 285 289 282 275 278 277 274 277 275 261 252 246 241 240 241 241 241 240 242
343 343 344 345 344 339 331 324 325 324 321 316 316 323 333 328 295 268 270 269 259 262 261 257 259 264 269 267 264 266 264 262 263 260 255 258 261 263 265 261 254 259 263 259 260 264 262 262 267 267 261 255 248 247 256 264 267 264 263 266 268 278 288 283 282 287 284 282 282 284 288 286 284 284 277 273 276 275 268 257 247 241 238 239 241 242 242 244
344 345 348 350 351 347 339 332 330 330 327 322 317 319 325 317 294 281 282 272 262 267 267 264 265 269 272 266 264 268 263 258 263 264 262 264 266 266 270 270 261 256 256 256 255 254 255 262 263 259 259 259 252 245 247 253 261 263 260 261 263 264 270 275 275 276 280 283 285 286 286 282 284 284 278 277 281 282 274 260 248 243 241 241 242 242 243 247
345 348 353 356 357 353 347 341 337 336 332 327 328 326 313 300 294 290 286 277 273 275 275 271 266 265 267 260 259 266 260 257 265 268 266 264 262 261 265 270 267 258 252 252 254 252 254 259 260 261 259 256 255 251 248 255 266 268 264 264 267 264 265 273 272 269 275 285 286 282 279 276 277 280 284 286 289 290 280 261 246 240 240 241 242 242 244 248
347 351 356 359 360 357 354 350 346 344 338 334 337 329 304 295 297 291 289 286 281 281 282 281 274 268 268 262 263 271 267 263 267 268 265 262 261 264 266 265 264 257 249 250 254 254 255 260 264 266 260 253 254 254 255 258 262 267 266 263 265 265 263 269 275 280 284 283 282 279 278 283 286 285 289 292 292 293 283 265 249 239 238 241 243 244 246 250
348 351 354 358 359 357 356 355 352 349 347 347 342 324 303 299 296 290 294 295 289 286 286 285 280 274 274 270 269 275 275 269 270 269 263 261 264 270 271 266 264 260 254 252 257 256 252 258 265 262 257 260 261 258 263 264 258 260 264 262 265 270 271 271 276 288 288 279 281 279 274 281 285 285 292 295 288 286 281 270 259 247 243 246 247 248 251 254
348 351 356 359 359 357 356 357 355 354 356 355 345 329 317 312 304 297 298 299 296 298 293 283 278 274 275 275 273 277 276 269 270 271 266 263 264 267 271 266 265 270 267 260 262 262 255 257 264 260 256 267 271 262 264 269 263 257 257 261 266 268 271 272 273 279 280 278 283 284 278 276 273 275 285 286 278 278 277 271 265 256 251 251 252 252 255 257
352 357 359 358 357 356 356 358 359 0 4 2 353 342 334 325 316 310 306 300 297 301 296 286 283 281 279 278 274 277 277 272 271 270 267 267 265 265 270 266 264 274 276 267 263 263 261 258 261 263 261 267 272 263 259 265 266 263 260 263 266 265 264 267 268 270 273 275 280 285 286 279 272 273 277 275 272 271 270 269 267 261 255 254 254 255 257 259
359 2 360 356 355 353 354 359 2 4 5 2 357 349 344 338 330 327 322 311 302 298 291 285 286 286 284 282 278 277 278 275 272 268 264 266 265 267 273 269 266 272 275 271 264 264 267 262 260 265 268 266 266 262 256 255 259 260 259 260 263 264 266 270 272 271 271 273 274 278 282 279 276 277 274 272 272 268 264 265 267 264 259 257 256 256 259 261
4 5 359 356 355 353 356 2 3 3 4 2 360 351 347 346 341 337 335 329 317 305 295 288 286 284 283 283 280 279 278 277 275 270 264 263 262 264 271 272 268 269 271 272 269 266 266 263 261 265 267 263 261 261 257 253 252 251 253 256 257 258 262 268 273 274 271 272 271 272 277 278 277 278 276 276 276 273 268 267 269 265 259 257 257 257 259 262
7 6 358 357 359 359 4 3 357 360 3 359 356 348 344 346 344 338 338 338 333 322 314 305 296 291 287 284 282 281 279 276 275 273 267 264 261 261 269 277 276 269 264 266 267 266 264 264 264 264 262 260 262 264 262 258 254 251 255 258 258 259 259 259 267 271 271 272 274 276 279 278 279 279 278 280 279 276 273 270 270 268 262 258 257 257 260 262
6 4 359 359 1 4 9 1 353 356 356 349 349 346 341 344 343 338 338 340 338 332 328 319 308 302 295 290 288 286 282 278 274 272 269 268 267 266 273 284 283 272 264 265 268 268 267 266 265 266 266 265 267 269 269 264 258 254 257 258 258 260 260 258 262 266 268 268 270 277 278 277 281 284 282 281 281 279 277 272 270 269 265 259 257 257 260 263
2 1 0 1 2 5 7 359 352 351 348 346 349 347 343 342 341 337 335 334 332 331 329 323 316 311 305 300 295 290 286 281 276 274 270 267 268 271 278 285 282 274 267 267 269 270 269 265 263 267 270 270 272 273 271 268 260 254 255 257 257 259 260 263 267 269 270 266 262 267 274 275 281 287 287 284 282 281 279 276 272 269 264 260 258 259 262 264
0 359 359 1 6 10 7 1 356 352 348 348 348 344 342 340 338 337 334 332 330 328 326 323 320 320 317 314 308 299 292 284 279 278 273 268 266 268 273 277 274 270 269 270 270 269 266 262 258 259 259 260 264 266 264 264 263 260 259 259 259 261 262 265 269 268 268 268 263 263 271 277 282 287 288 287 285 283 282 280 276 271 265 262 261 263 265 265
1 359 356 357 4 11 9 3 2 357 351 351 347 342 342 338 335 337 339 336 334 331 329 325 323 322 322 322 316 306 298 288 283 281 277 272 266 266 274 277 270 268 270 275 273 266 261 262 259 256 255 256 259 260 261 262 264 265 266 263 262 264 266 267 268 265 265 269 268 266 270 277 282 284 286 286 285 285 285 283 277 272 267 265 265 267 267 265
1 358 356 356 358 3 3 1 2 358 351 349 344 340 341 338 335 338 340 337 334 333 330 327 326 322 316 317 314 306 302 296 289 284 281 277 270 269 275 274 268 268 269 270 270 264 261 265 263 258 260 262 262 264 264 263 263 263 265 266 265 265 265 264 264 265 266 269 271 270 270 274 279 281 282 284 284 283 283 280 276 272 268 265 266 267 267 265
1 357 356 357 355 354 355 355 356 354 350 346 342 340 341 341 339 338 335 334 335 335 331 327 328 325 316 313 311 306 305 301 294 288 285 281 276 273 273 267 264 269 269 267 268 265 263 266 263 260 264 266 266 266 264 262 264 263 261 264 267 266 263 262 264 264 264 266 271 273 272 273 279 281 280 281 280 278 277 276 275 274 271 268 266 265 264 264
2 358 354 355 354 350 348 348 350 353 351 348 345 344 343 341 339 333 329 331 333 334 333 328 326 325 320 314 309 305 305 303 298 292 287 283 278 273 272 268 266 268 269 269 270 267 265 267 265 263 268 270 268 267 263 260 263 265 262 262 266 267 264 264 266 265 263 266 271 274 274 276 278 278 278 280 280 277 278 279 278 277 274 270 266 265 265 266
2 358 353 354 354 349 346 347 349 351 350 348 347 345 343 342 338 332 329 331 330 330 334 332 325 322 320 316 309 304 303 301 296 291 287 285 280 273 271 268 266 268 269 269 270 268 266 268 268 268 272 273 270 269 267 263 263 265 266 265 265 267 268 266 267 268 267 269 271 272 275 279 280 278 278 281 282 281 281 281 279 277 275 271 269 268 268 268
0 357 355 355 352 348 346 345 348 349 346 345 345 343 343 341 336 332 330 331 332 332 331 329 324 322 321 317 310 304 304 302 294 288 285 281 276 271 268 266 266 270 270 266 267 268 267 270 274 276 276 274 273 272 270 269 269 267 268 267 265 266 267 267 268 267 265 267 269 270 274 278 280 282 283 284 284 282 281 281 279 277 275 271 269 269 268 268
358 356 355 356 350 346 346 345 346 347 342 340 340 339 340 337 334 334 334 332 334 333 330 328 325 324 323 320 316 313 310 305 298 291 285 279 273 269 266 264 263 265 266 264 266 266 265 269 274 275 274 275 276 274 270 271 273 269 267 266 264 263 264 267 269 266 263 263 264 265 270 274 279 286 288 287 285 283 283 282 278 275 272 270 268 268 269 270